This is the latest recevied weather packets stored in our database for station/object WD9EKA. If no packets are shown the sender has not sent any weather packets the latest 10 day(s).
| Time | Temp. | Humidity | Pressure | Rain* | Wind** | Luminosity | Snow |
|---|---|---|---|---|---|---|---|
| 1778094213 | 12.78° C | 70% | 1010.4 hPa | 0 mm | - | - | - |
| 1778093853 | 12.78° C | 76% | 1010.6 hPa | 0 mm | - | - | - |
| 1778093493 | 12.78° C | 76% | 1010.6 hPa | 0 mm | - | - | - |
| 1778093133 | 12.22° C | 74% | 1010.4 hPa | 0 mm | - | - | - |
| 1778092413 | 12.22° C | 77% | 1010.6 hPa | 0 mm | - | - | - |
| 1778092053 | 12.22° C | 80% | 1010.2 hPa | 0 mm | - | - | - |
| 1778091693 | 11.67° C | 81% | 1010.4 hPa | 0 mm | - | - | - |
| 1778091333 | 11.67° C | 80% | 1010.6 hPa | 0 mm | - | - | - |
| 1778090973 | 11.67° C | 79% | 1010.4 hPa | 0 mm | - | - | - |
| 1778090613 | 11.67° C | 82% | 1010.3 hPa | 0 mm | - | - | - |
| 1778090253 | 11.67° C | 82% | 1010.4 hPa | 0 mm | - | - | - |
| 1778089893 | 11.67° C | 83% | 1010.5 hPa | 0 mm | - | - | - |
| 1778089533 | 11.67° C | 83% | 1010.5 hPa | 0 mm | - | - | - |
| 1778089173 | 11.11° C | 83% | 1010.7 hPa | 0 mm | - | - | - |
| 1778088813 | 11.11° C | 82% | 1010.5 hPa | 0 mm | - | - | - |
| 1778088453 | 11.11° C | 83% | 1010.5 hPa | 0 mm | - | - | - |
| 1778088093 | 11.11° C | 83% | 1010.8 hPa | 0 mm | - | - | - |
| 1778087733 | 11.11° C | 83% | 1010.7 hPa | 0 mm | - | - | - |
| 1778087373 | 11.11° C | 82% | 1010.6 hPa | 0 mm | - | - | - |
| 1778087013 | 11.11° C | 83% | 1010.5 hPa | 0 mm | - | - | - |
| 1778086653 | 11.11° C | 82% | 1010.3 hPa | 0 mm | - | - | - |
| 1778086293 | 11.11° C | 83% | 1010.2 hPa | 0 mm | - | - | - |
| 1778085933 | 11.11° C | 82% | 1010.5 hPa | 0 mm | - | - | - |
| 1778085573 | 11.11° C | 84% | 1010.5 hPa | 0 mm | - | - | - |
| 1778085214 | 11.11° C | 82% | 1010.4 hPa | 0 mm | - | - | - |
* Rain latest hour (hover to see other rain measurements)
** Current wind speed in m/s (hover to see current wind gust speed)